TimeCST,TemperatureF,Dew PointF,Humidity,Sea Level PressureIn,VisibilityMPH,Wind Direction,Wind SpeedMPH,Gust SpeedMPH,PrecipitationIn,Events,Conditions,WindDirDegrees,DateUTC
12:53 AM,19.9,10.9,68,30.18,10.0,ESE,6.9,-,N/A,,Clear,110,2012-12-30 06:53:00
1:53 AM,14.0,8.1,77,30.15,10.0,ENE,4.6,-,N/A,,Clear,70,2012-12-30 07:53:00
2:53 AM,17.1,10.0,74,30.12,10.0,SE,10.4,-,N/A,,Clear,130,2012-12-30 08:53:00
3:53 AM,21.9,12.9,68,30.06,10.0,SE,11.5,-,N/A,,Clear,140,2012-12-30 09:53:00
4:53 AM,23.0,14.0,68,30.05,10.0,South,11.5,-,N/A,,Clear,170,2012-12-30 10:53:00
5:53 AM,21.0,12.9,71,30.05,10.0,SSW,4.6,-,N/A,,Clear,210,2012-12-30 11:53:00
6:53 AM,21.0,12.9,71,30.05,10.0,SW,4.6,-,N/A,,Clear,230,2012-12-30 12:53:00
7:53 AM,18.0,12.0,78,30.06,10.0,SW,6.9,-,N/A,,Clear,220,2012-12-30 13:53:00
8:53 AM,18.0,12.9,81,30.08,10.0,West,9.2,-,N/A,,Clear,270,2012-12-30 14:53:00
9:53 AM,18.0,12.0,78,30.10,10.0,West,11.5,-,N/A,,Clear,280,2012-12-30 15:53:00
10:53 AM,19.9,12.0,71,30.10,10.0,West,10.4,-,N/A,,Clear,260,2012-12-30 16:53:00
11:53 AM,21.9,10.9,63,30.12,10.0,WSW,6.9,-,N/A,,Clear,240,2012-12-30 17:53:00
12:53 PM,23.0,12.9,65,30.10,10.0,WSW,8.1,-,N/A,,Clear,240,2012-12-30 18:53:00
1:53 PM,25.0,14.0,63,30.09,10.0,WSW,9.2,-,N/A,,Clear,250,2012-12-30 19:53:00
2:53 PM,27.0,16.0,63,30.09,10.0,WSW,11.5,-,N/A,,Clear,250,2012-12-30 20:53:00
3:53 PM,28.0,15.1,58,30.09,10.0,WNW,10.4,-,N/A,,Clear,290,2012-12-30 21:53:00
4:53 PM,28.0,15.1,58,30.12,10.0,West,9.2,-,N/A,,Clear,280,2012-12-30 22:53:00
5:53 PM,25.0,15.1,66,30.14,10.0,WNW,11.5,-,N/A,,Clear,300,2012-12-30 23:53:00
6:53 PM,25.0,16.0,69,30.15,10.0,WNW,11.5,-,N/A,,Clear,300,2012-12-31 00:53:00
7:53 PM,24.1,16.0,71,30.17,10.0,WNW,9.2,-,N/A,,Clear,290,2012-12-31 01:53:00
8:53 PM,24.1,16.0,71,30.18,10.0,Calm,Calm,-,N/A,,Clear,0,2012-12-31 02:53:00
9:53 PM,21.9,15.1,75,30.20,10.0,West,4.6,-,N/A,,Clear,280,2012-12-31 03:53:00
10:53 PM,18.0,14.0,84,30.20,10.0,NW,6.9,-,N/A,,Clear,320,2012-12-31 04:53:00
11:53 PM,16.0,12.0,84,30.22,10.0,NNW,5.8,-,N/A,,Clear,330,2012-12-31 05:53:00